Location: Newark
(1.4000°N, 32.2500°E)
Time: 09:09:04
(UTC+00:00)

ISS - Visible Passes

Search period start: 16 October 2019 00:00
Search period end: 26 October 2019 00:00
Orbit: 411 x 421 km, 51.6° (Epoch: 16 October)

Date Brightness Start Highest point End Pass type
(mag) Time Alt. Az. Time Alt. Az. Time Alt. Az.
16 Oct -2.3 16:19:48 10° NW 16:22:55 39° SW 16:26:03 10° SSE visible
18 Oct -1.8 03:07:44 10° SSW 03:10:50 33° SE 03:13:55 10° ENE visible
19 Oct -0.6 02:20:17 10° SSE 02:22:19 15° SE 02:24:20 10° E visible
20 Oct -3.3 03:07:09 10° SW 03:10:19 39° NW 03:13:29 10° NNE visible
21 Oct -3.7 02:20:18 30° SSW 02:21:49 77° SE 02:25:10 10° NE visible
22 Oct -0.6 01:35:54 12° ENE 01:35:54 12° ENE 01:36:17 10° ENE visible
